Weather History for Winnemucca, NV

Change the Weather History Date:

Sunday, March 17, 2013

  Actual Average Record
Temperature  
Mean Temperature 41 °F 41 °F  
Max Temperature 55 °F 56 °F 79 °F (2007)
Min Temperature 27 °F 27 °F 9 °F (1971)
Degree Days  
Heating Degree Days 24 24  
Month to date heating degree days 398 425  
Since 1 July heating degree days 5164 5014  
Cooling Degree Days 0 0  
Month to date cooling degree days 0 0  
Year to date cooling degree days 0 0  
Moisture  
Dew Point 14 °F    
Average Humidity 40    
Maximum Humidity 64    
Minimum Humidity 16    
Precipitation  
Precipitation 0.00 in 0.03 in 0.46 in (1899)
Month to date precipitation 0.16 0.45  
Year to date precipitation 0.62 1.98  
Snow  
Snow 0.00 in 0.10 in 5.70 in (1933)
Month to date snowfall T 1.9  
Since 1 July snowfall 21.9 17.9  
Snow Depth 0.00 in    
Sea Level Pressure  
Sea Level Pressure 30.01 in    
Wind  
Wind Speed 10 mph (West)    
Max Wind Speed 23 mph    
Max Gust Speed 32 mph    
Visibility 10 miles    
Events      
T = Trace of Precipitation, MM = Missing Value Source: NWS Daily Summary

Daily Weather History Graph

Daily Weather History Graph

Search for Another Location

Airport:

Trip Planner

Search our weather history database for the weather conditions in past years. The results will help you decide how hot, cold, wet, or windy it might be!

Date:

Astronomy

Mar. 17, 2013 Rise Set
Actual Time 6:59 AM PDT 7:00 PM PDT
Civil Twilight 6:31 AM PDT 7:27 PM PDT
Nautical Twilight 5:59 AM PDT 7:59 PM PDT
Astronomical Twilight 5:27 AM PDT 8:32 PM PDT
Moon 10:12 AM PDT (3/17) 12:14 AM PDT (3/17)
Length of Visible Light 12h 56m
Length of Day
12h 01m
Waxing Crescent, 32% of the Moon is Illuminated
Mar 17
Waxing Crescent
Mar 19
First Quarter
Mar 27
Full
Apr 2
Last Quarter
Apr 10
New

Hourly Weather History & Observations

Time (PDT) Temp. Windchill Dew Point Humidity Pressure Visibility Wind Dir Wind Speed Gust Speed Precip Events Conditions
12:56 AM 39.0 °F 32.8 °F 24.1 °F 55% 29.94 in 10.0 mi WSW 9.2 mph - N/A   Clear
1:56 AM 34.0 °F - 23.0 °F 64% 29.95 in 10.0 mi Calm Calm - N/A   Clear
2:56 AM 42.1 °F - 26.1 °F 53% 29.94 in 10.0 mi Calm Calm - N/A   Clear
3:56 AM 37.9 °F 32.7 °F 23.0 °F 55% 29.95 in 10.0 mi WSW 6.9 mph - N/A   Clear
4:56 AM 32.0 °F 24.8 °F 18.0 °F 56% 29.97 in 10.0 mi WSW 8.1 mph - N/A   Clear
5:56 AM 32.0 °F 24.2 °F 18.0 °F 56% 29.97 in 10.0 mi WSW 9.2 mph - N/A   Clear
6:56 AM 30.0 °F 21.7 °F 19.9 °F 66% 29.99 in 10.0 mi WSW 9.2 mph - N/A   Clear
7:56 AM 39.9 °F 31.4 °F 21.9 °F 49% 30.00 in 10.0 mi West 16.1 mph 20.7 mph N/A   Clear
8:56 AM 45.0 °F 38.2 °F 19.9 °F 37% 30.02 in 10.0 mi West 15.0 mph 20.7 mph N/A   Clear
9:56 AM 46.0 °F 39.9 °F 16.0 °F 30% 30.05 in 10.0 mi West 13.8 mph 23.0 mph N/A   Clear
10:56 AM 48.0 °F - 12.0 °F 24% 30.05 in 10.0 mi West 17.3 mph 20.7 mph N/A   Clear
11:56 AM 50.0 °F - 10.9 °F 21% 30.05 in 10.0 mi West 12.7 mph 23.0 mph N/A   Clear
12:56 PM 51.1 °F - 8.1 °F 18% 30.04 in 10.0 mi WSW 11.5 mph 19.6 mph N/A   Clear
1:56 PM 52.0 °F - 7.0 °F 16% 30.03 in 10.0 mi West 12.7 mph 24.2 mph N/A   Clear
2:56 PM 53.1 °F - 8.1 °F 16% 29.99 in 10.0 mi West 13.8 mph 23.0 mph N/A   Clear
3:56 PM 54.0 °F - 9.0 °F 17% 29.99 in 10.0 mi WSW 13.8 mph 24.2 mph N/A   Clear
4:56 PM 54.0 °F - 8.1 °F 16% 30.00 in 10.0 mi West 15.0 mph - N/A   Clear
5:56 PM 53.1 °F - 8.1 °F 16% 29.99 in 10.0 mi WNW 15.0 mph 20.7 mph N/A   Clear
6:56 PM 48.9 °F - 10.0 °F 21% 30.01 in 10.0 mi WNW 10.4 mph - N/A   Clear
7:56 PM 39.0 °F 34.8 °F 10.0 °F 30% 30.02 in 10.0 mi WSW 5.8 mph - N/A   Clear
8:56 PM 36.0 °F 32.1 °F 10.0 °F 34% 30.04 in 10.0 mi WNW 4.6 mph - N/A   Clear
9:56 PM 32.0 °F 27.5 °F 10.0 °F 40% 30.06 in 10.0 mi West 4.6 mph - N/A   Clear
10:56 PM 36.0 °F 32.1 °F 12.9 °F 39% 30.05 in 10.0 mi North 4.6 mph - N/A   Clear
11:56 PM 33.1 °F 30.0 °F 12.0 °F 42% 30.06 in 10.0 mi Variable 3.5 mph - N/A   Clear